Le nostre stazioni meteo in Italia

Pubblicità
Il mio iltempo24.it
Gela, Italia (16453): Temperatura & dewpoint: 14.08.2017 05:00:00 - 20.08.2017 05:00:00 (CEST)Gela, Italia (16453): velocità del vento: 14.08.2017 05:00:00 - 20.08.2017 05:00:00 (CEST)Gela, Italia (16453): direzione del vento: 14.08.2017 05:00:00 - 20.08.2017 05:00:00 (CEST)Gela, Italia (16453): reduced air pressure: 14.08.2017 05:00:00 - 20.08.2017 05:00:00 (CEST)Gela, Italia (16453): visibility: 14.08.2017 05:00:00 - 20.08.2017 05:00:00 (CEST)Gela, Italia (16453): ore di luce: 14.08.2017 05:00:00 - 20.08.2017 05:00:00 (CEST)
Data & Tempo tt [°C] td [°C] ff [km/h] ff [kn] dd ppp [hPa] vv [km] sd [min]
20.08.2017 05:00:00 - - - - - - - -
20.08.2017 04:00:00 - - - - - - - -
20.08.2017 03:00:00 - - - - - - - -
20.08.2017 02:00:00 - - - - - - - -
20.08.2017 01:00:00 - - - - - - - -
20.08.2017 00:00:00 - - - - - - - -
19.08.2017 23:00:00 - - - - - - - -
19.08.2017 22:00:00 - - - - - - - -
19.08.2017 21:00:00 - - - - - - - -
19.08.2017 20:00:00 27,0 19,4 13 7 SO 1014,5 10 0
19.08.2017 19:00:00 28,0 20,0 15 8 SO - 10 -
19.08.2017 18:00:00 28,0 20,0 15 8 OSO - 10 -
19.08.2017 17:00:00 28,6 19,8 13 7 OSO 1014,5 16 60
19.08.2017 16:00:00 29,0 20,0 18 10 O - 10 -
19.08.2017 15:00:00 29,0 19,0 16 9 OSO - 10 -
19.08.2017 14:00:00 28,8 19,2 15 8 OSO 1015,0 16 60
19.08.2017 13:00:00 28,0 18,0 15 8 OSO - 10 -
19.08.2017 12:00:00 28,0 18,0 15 8 SO - 10 -
19.08.2017 11:00:00 28,0 17,5 13 7 SO 1015,5 18 60
19.08.2017 10:00:00 27,0 17,0 9 5 SO - 10 -
19.08.2017 09:00:00 27,0 16,0 4 2 OSO - 10 -
19.08.2017 08:00:00 26,6 16,2 0 0 N 1015,1 16 60
19.08.2017 07:00:00 - - - - - - - -
19.08.2017 06:00:00 - - - - - - - -
19.08.2017 05:00:00 - - - - - - - -
19.08.2017 04:00:00 - - - - - - - -
19.08.2017 03:00:00 - - - - - - - -
19.08.2017 02:00:00 - - - - - - - -
19.08.2017 01:00:00 - - - - - - - -
19.08.2017 00:00:00 - - - - - - - -
18.08.2017 23:00:00 - - - - - - - -
18.08.2017 22:00:00 - - - - - - - -
18.08.2017 21:00:00 - - - - - - - -
18.08.2017 20:00:00 30,0 17,1 4 2 ONO 1015,2 14 24
18.08.2017 19:00:00 30,0 17,0 5 3 O - 10 -
18.08.2017 18:00:00 31,0 18,0 8 4 OSO - 10 -
18.08.2017 17:00:00 31,8 18,4 8 4 O 1015,1 14 60
18.08.2017 16:00:00 30,0 17,0 13 7 O - 10 -
18.08.2017 15:00:00 30,0 17,0 13 7 O - 10 -
18.08.2017 14:00:00 30,4 16,8 15 8 O 1015,5 14 60
18.08.2017 13:00:00 30,0 16,0 15 8 O - 10 -
18.08.2017 12:00:00 30,0 16,0 9 5 OSO - 10 -
18.08.2017 11:00:00 29,8 15,5 9 5 O 1015,7 14 60
18.08.2017 10:00:00 28,0 14,0 9 5 OSO - 10 -
18.08.2017 09:00:00 30,0 15,0 0 0 N - 10 -
18.08.2017 08:00:00 27,2 13,5 4 2 N 1015,1 12 36
18.08.2017 07:00:00 - - - - - - - -
18.08.2017 06:00:00 - - - - - - - -
18.08.2017 05:00:00 - - - - - - - -
18.08.2017 04:00:00 - - - - - - - -
18.08.2017 03:00:00 - - - - - - - -
18.08.2017 02:00:00 - - - - - - - -
18.08.2017 01:00:00 - - - - - - - -
18.08.2017 00:00:00 - - - - - - - -
17.08.2017 23:00:00 - - - - - - - -
17.08.2017 22:00:00 - - - - - - - -
17.08.2017 21:00:00 - - - - - - - -
17.08.2017 20:00:00 27,2 18,2 5 3 SSE 1013,2 20 42
17.08.2017 19:00:00 28,0 19,0 15 8 OSO - 10 -
17.08.2017 18:00:00 28,0 19,0 24 13 O - 10 -
17.08.2017 17:00:00 28,4 18,8 15 8 SO 1013,4 23 60
17.08.2017 16:00:00 29,0 19,0 18 10 O - 10 -
17.08.2017 15:00:00 29,0 19,0 18 10 O - 10 -
17.08.2017 14:00:00 28,8 18,3 18 10 OSO 1014,6 23 60
17.08.2017 13:00:00 28,0 18,0 11 6 O - 10 -
17.08.2017 12:00:00 28,0 17,0 11 6 SO - 10 -
17.08.2017 11:00:00 28,2 17,1 8 4 SO 1015,1 25 60
17.08.2017 10:00:00 28,0 17,0 4 2 SO - 10 -
17.08.2017 09:00:00 27,0 16,0 2 1 SSO - 10 -
17.08.2017 08:00:00 25,4 14,8 2 1 ONO 1015,0 25 60
17.08.2017 07:00:00 - - - - - - - -
17.08.2017 06:00:00 - - - - - - - -
17.08.2017 05:00:00 - - - - - - - -
17.08.2017 04:00:00 - - - - - - - -
17.08.2017 03:00:00 - - - - - - - -
17.08.2017 02:00:00 - - - - - - - -
17.08.2017 01:00:00 - - - - - - - -
17.08.2017 00:00:00 - - - - - - - -
16.08.2017 23:00:00 - - - - - - - -
16.08.2017 22:00:00 - - - - - - - -
16.08.2017 21:00:00 - - - - - - - -
16.08.2017 20:00:00 27,0 21,5 4 2 ENE 1014,5 20 48
16.08.2017 19:00:00 27,0 22,0 9 5 SO - 10 -
16.08.2017 18:00:00 27,0 21,0 11 6 SSO - 10 -
16.08.2017 17:00:00 27,4 21,2 11 6 SO 1014,9 20 60
16.08.2017 16:00:00 27,0 21,0 13 7 SO - 10 -
16.08.2017 15:00:00 27,0 21,0 13 7 SO - 10 -
16.08.2017 14:00:00 27,2 20,5 16 9 OSO 1015,9 23 60
16.08.2017 13:00:00 27,0 20,0 15 8 SO - 10 -
16.08.2017 12:00:00 27,0 20,0 8 4 N - 10 -
16.08.2017 11:00:00 27,0 19,9 8 4 OSO 1016,8 23 60
16.08.2017 10:00:00 27,0 20,0 5 3 SO - 10 -
16.08.2017 09:00:00 26,0 19,0 2 1 SO - 10 -
16.08.2017 08:00:00 24,4 18,1 2 1 SSE 1016,6 25 60
16.08.2017 07:00:00 - - - - - - - -
16.08.2017 06:00:00 - - - - - - - -
16.08.2017 05:00:00 - - - - - - - -
16.08.2017 04:00:00 - - - - - - - -
16.08.2017 03:00:00 - - - - - - - -
16.08.2017 02:00:00 - - - - - - - -
16.08.2017 01:00:00 - - - - - - - -
16.08.2017 00:00:00 - - - - - - - -
15.08.2017 23:00:00 - - - - - - - -
15.08.2017 22:00:00 - - - - - - - -
15.08.2017 21:00:00 - - - - - - - -
15.08.2017 20:00:00 - - - - - - - -
15.08.2017 19:00:00 - - - - - - - -
15.08.2017 18:00:00 - - - - - - - -
15.08.2017 17:00:00 - - - - - - - -
15.08.2017 16:00:00 - - - - - - - -
15.08.2017 15:00:00 - - - - - - - -
15.08.2017 14:00:00 - - - - - - - -
15.08.2017 13:00:00 - - - - - - - -
15.08.2017 12:00:00 - - - - - - - -
15.08.2017 11:00:00 - - - - - - - -
15.08.2017 10:00:00 - - - - - - - -
15.08.2017 09:00:00 - - - - - - - -
15.08.2017 08:00:00 - - - - - - - -
15.08.2017 07:00:00 - - - - - - - -
15.08.2017 06:00:00 - - - - - - - -
15.08.2017 05:00:00 - - - - - - - -
15.08.2017 04:00:00 - - - - - - - -
15.08.2017 03:00:00 - - - - - - - -
15.08.2017 02:00:00 - - - - - - - -
15.08.2017 01:00:00 - - - - - - - -
15.08.2017 00:00:00 - - - - - - - -
14.08.2017 23:00:00 - - - - - - - -
14.08.2017 22:00:00 - - - - - - - -
14.08.2017 21:00:00 - - - - - - - -
14.08.2017 20:00:00 26,0 18,4 4 2 SO 1017,1 20 42
14.08.2017 19:00:00 26,0 18,0 9 5 SSO - 10 -
14.08.2017 18:00:00 27,0 18,0 11 6 SO - 10 -
14.08.2017 17:00:00 27,0 18,6 11 6 OSO 1016,8 25 60
14.08.2017 16:00:00 27,0 19,0 15 8 OSO - 10 -
14.08.2017 15:00:00 27,0 18,0 15 8 O - 10 -
14.08.2017 14:00:00 27,6 18,3 15 8 O 1017,4 25 60
14.08.2017 13:00:00 28,0 19,0 11 6 OSO - 10 -
14.08.2017 12:00:00 27,0 18,0 13 7 OSO - 10 -
14.08.2017 11:00:00 28,4 18,5 8 4 OSO 1017,6 25 60
14.08.2017 10:00:00 27,0 18,0 4 2 O - 10 -
14.08.2017 09:00:00 25,0 17,0 5 3 ENE - 10 -
14.08.2017 08:00:00 23,8 15,6 5 3 ENE 1017,2 25 60
14.08.2017 07:00:00 - - - - - - - -
14.08.2017 06:00:00 - - - - - - - -
14.08.2017 05:00:00 - - - - - - - -

tt = Temperatura
td = dewpoint
ff = velocità del vento
dd = direzione del vento
ppp = reduced air pressure
vv = visibility
sd = ore di luce

Stazioni seguenti

WeatherPro
AMSI
MeteoEarth